Weather in Ust-Elegest

Russia / Tyva Republic     51°33′51″N   94°05′58″E
temp.,
°C
wind,
m/s
gust,
m/s
humid.,
%
clouds,
%
prec.,
mm/h
press.,
hPa
HPBL,
m
5 march, fri
fri501:00−18e11940 0.0 103320
04:00−19ene11990 0.0 103220
07:00−20e0110038 0.0 103120
10:00−15ne119396 0.0 102978
13:00−12e228398 0.0 1027275
16:00−10wnw1176100 0.0 1025262
19:00−13wnw2388100 0.0 102823
22:00−16w339283 0.0 103120
6 march, sat
sat601:00−16wsw239074 0.0 103520
04:00−19e019117 0.0 103520
07:00−19se019927 0.0 103620
10:00−14sse0091100 0.0 103377
13:00−11ne1182100 0.0 1030270
16:00−9wnw0083100 0.0 1027208
19:00−14w118997 0.0 102821
22:00−14w1186100 0.0 102820
7 march, sun
sun701:00−16wnw1287100 0.0 102820
04:00−18w119083 0.0 102620
07:00−19wnw129176 0.0 102820
10:00−14wnw118795 0.0 102780
13:00−11wnw008396 0.0 1026214
16:00−9sw008497 0.0 1025166
19:00−11wnw118699 0.0 102721
22:00−12wnw2284100 0.0 102921
8 march, mon
mon801:00−16w128764 0.0 103020
04:00−17ene019039 0.0 103020
07:00−18se009454 0.0 103220
10:00−13e009091 0.0 102954
13:00−10e118468 0.0 1027217
16:00−8se008536 0.0 1025180
19:00−13w129026 0.0 102621
22:00−14w12870 0.0 102721
9 march, tue
tue901:00−15w118835 0.0 102620
04:00−14wnw2286100 0.0 102720
07:00−14w2289100 0.0 103021
10:00−11ne0086100 0.0 103078
13:00−8e118064 0.0 1029255
16:00−6ese11790 0.0 1028226
19:00−12sse11871 0.0 103021
22:00−14ssw11870 0.0 103021